Meteo Giornale » Osservazioni meteo Slovenia » Ljubljana-Brnik

ore: 13:00 - Osservazioni Meteo Ljubljana-Brnik
Lat. 46° 13' N Lon. 14° 29' E Alt. 385 metri s.l.m.

molto_nuvoloso Europe/Ljubljana

14 °C

Molto Nuvoloso

Temp. 24 Ore

6 °C

14 °C

Nord

3.7 Km/h

Dew point 10 °C

Umidità 76 %

Visibilità  10 Km

Il sole sorge alle ore 06:57

Il sole tramonta alle ore 18:47

Data e Ora Cielo e Fenomeni T °C DP °C Um. % Pres. hPa Vis. km Vento km/h
Oggi h: 13:00 molto_nuvoloso Molto Nuvoloso 14 10 76 1017 10 N 3.7
Oggi h: 12:30 molto_nuvoloso Molto Nuvoloso 13 9 76 1017 10 N 3.7
Oggi h: 12:00 molto_nuvoloso Molto Nuvoloso 12 8 76 1017 10 N 1.8
Oggi h: 11:30 nuvoloso Nuvoloso 11 9 87 1017 10 N 5.5
Oggi h: 11:00 molto_nuvoloso Molto Nuvoloso 10 8 87 1017 10 N 1.8
Oggi h: 10:30 molto_nuvoloso Molto Nuvoloso 10 8 87 1017 10 N 3.7
Oggi h: 10:00 nuvoloso Nuvoloso 9 8 93 1017 8 O 7.4
Oggi h: 09:30 foschia Foschia 8 8 100 1016 3 N 5.5
Oggi h: 09:00 foschia Foschia 8 8 100 1016 1 N 5.5
Oggi h: 08:30 nebbia Banco di Nebbia Foschia 8 8 100 1016 0.8 N 3.7
Oggi h: 08:00 molto_nuvoloso Nebbia nelle Vicinanze 7 7 100 1016 3 N 0
Oggi h: 07:30 nebbia Banco di Nebbia 7 7 100 1016 0.8 N 1.8
Oggi h: 07:00 nebbia Banco di Nebbia Nebbia a Strati 7 7 100 1015 0.8 N 1.8
Oggi h: 06:30 nebbia Nebbia 6 6 100 1015 0.8 N 0
Oggi h: 06:00 nebbia Banco di Nebbia 6 6 100 1015 0.8 N 5.5
Oggi h: 05:00 nebbia Nebbia a Strati 6 6 100 1015 10 N 0
Oggi h: 04:30 nebbia Nebbia a Strati 6 6 100 1014 10 N 5.5
Oggi h: 04:00 nebbia Nebbia a Strati 7 7 100 1014 10 N 3.7
Oggi h: 03:30 molto_nuvoloso Molto Nuvoloso 8 8 100 1014 10 N 1.8
Oggi h: 03:00 molto_nuvoloso Molto Nuvoloso 8 8 100 1014 10 N 1.8
Oggi h: 02:30 molto_nuvoloso Molto Nuvoloso 8 8 100 1014 10 N 1.8
Oggi h: 02:00 molto_nuvoloso Molto Nuvoloso 8 8 100 1014 10 N 3.7
Oggi h: 01:30 molto_nuvoloso Molto Nuvoloso 8 8 100 1013 10 N 1.8
Oggi h: 01:00 molto_nuvoloso Molto Nuvoloso 8 8 100 1013 10 N 3.7
Oggi h: 00:30 molto_nuvoloso Molto Nuvoloso 8 8 100 1013 10 N 5.5
Oggi h: 00:00 molto_nuvoloso Molto Nuvoloso 9 8 93 1013 10 N 3.7
Ieri h: 23:30 coperto_pioggia Pioggia Debole 9 8 93 1013 10 N 5.5
Ieri h: 23:00 coperto_pioggia Pioggia Debole 9 8 93 1013 10 N 1.8
Ieri h: 22:30 coperto_pioggia Pioggia Debole 9 8 93 1013 10 O 7.4
Ieri h: 22:00 coperto_pioggia Pioggia Debole 9 8 93 1013 10 O 7.4
Ieri h: 21:30 coperto_pioggia Pioggia Debole 9 8 93 1012 10 O/NO 7.4
Ieri h: 21:00 coperto_pioggia Pioggia Debole 9 8 93 1012 10 O/NO 7.4
Ieri h: 20:30 coperto_pioggia Pioggia Debole 9 8 93 1012 10 N 5.5
Ieri h: 20:00 coperto_pioggia Pioggia Debole 9 8 93 1011 10 O 7.4
Ieri h: 19:30 coperto_pioggia Pioggia Debole 9 8 93 1011 10 O 11.1
Ieri h: 19:00 molto_nuvoloso Molto Nuvoloso 10 8 87 1010 10 O 14.8
Ieri h: 16:00 coperto_pioggia Pioggia Debole 10 8 87 1009 10 NO 16.7
Ieri h: 15:30 molto_nuvoloso Molto Nuvoloso 10 9 93 1009 10 O/NO 14.8
Ieri h: 15:00 molto_nuvoloso Molto Nuvoloso 10 9 93 1009 10 NO 9.3
Ieri h: 14:30 molto_nuvoloso Molto Nuvoloso 10 8 87 1009 10 N/NO 11.1
Ieri h: 14:00 molto_nuvoloso Molto Nuvoloso 10 9 93 1009 10 O/NO 13